Location: Newark
(44.8699°N, 13.8438°E)
Time: 05:51:40
(UTC+00:00)

Envisat - Pass Details

Date: 20 September 2019
Orbit: 764 x 766 km, 98.1° (Epoch: 16 October)

Event Time Altitude Azimuth Distance (km) Brightness Sun altitude
Rises 17:42:16 0° 183° (S) 3,219 6.2 -7.1°
Reaches altitude 10° 17:44:40 10° 190° (S) 2,297 5.5 -7.5°
Maximum altitude 17:49:29 44° 262° (W) 1,058 4.4 -8.4°
Drops below altitude 10° 17:54:21 10° 334° (NNW) 2,313 6.0 -9.2°
Sets 17:56:46 0° 341° (NNW) 3,243 6.7 -9.6°
